Regional Weather Roundup
Issued by NWS

Home | Current Version | Previous Version | Graphics & Text | Print | Product List | Glossary On
Versions: 1 2 3 4 5 6 7 8 9 10 11 12 13 14 15 16 17 18 19 20 21 22 23 24 25 26 27 28 29 30 31 32 33 34 35 36 37 38 39 40 41 42 43 44 45 46 47 48 49 50
000
ASUS43 KMPX 261010
RWRMN
WEATHER ROUNDUP FOR MINNESOTA
NATIONAL WEATHER SERVICE TWIN CITIES/CHANHASSEN MN
500 AM CDT THU MAY 26 2016


NOTE: "FAIR" INDICATES FEW OR NO CLOUDS BELOW 12,000 FEET WITH NO
SIGNIFICANT WEATHER AND/OR OBSTRUCTIONS TO VISIBILITY. N/A MEANS
CURRENT SKY AND/OR WEATHER CONDITIONS ARE NOT AVAILABLE.

MNZ060>063-068>070-261100-
   Twin Cities Metro

CITY           SKY/WX    TMP DP  RH WIND       PRES   REMARKS
TWIN CITIES    CLOUDY    67  52  58 VRB7G17   29.73F
ST PAUL        LGT RAIN  62  57  83 E21       29.70F
CRYSTAL        CLOUDY    63  54  72 W12       29.74F
BLAINE         CLOUDY    64  59  82 W9        29.74F
EDEN PRAIRIE   CLOUDY    60  55  83 W8        29.75F
SOUTH ST PAUL  LGT RAIN  60  58  95 E14       29.71F
LAKE ELMO      RAIN      61  57  88 S14       29.77F
$$
MNZ001>005-007-008-013>017-022>024-027-028-261100-
   Northwest Minnesota

CITY           SKY/WX    TMP DP  RH WIND       PRES   REMARKS
BEMIDJI        MOCLDY    55  54  97 S6        29.73S
HALLOCK        PTCLDY    57  55  94 SW12      29.66R
ROSEAU         CLOUDY    59  54  82 S8        29.69R
WARROAD        CLOUDY    57  54  88 S6        29.70S
THIEF RVR FALL CLOUDY    57  54  88 S7        29.72F
CROOKSTON      CLOUDY    57  57 100 S10       29.73R FOG
FOSSTON        CLEAR     52  50  93 S5        29.74S FOG
DETROIT LAKES  PTCLDY    55  54  94 CALM      29.75F
MOORHEAD       CLEAR     52  52 100 CALM      29.74S FOG
PARK RAPIDS    CLOUDY    59  57  93 SE3       29.73F
MAHNOMEN       FOG       51  51  99 S3        29.74S VSB 1/2
$$
MNZ006-009>011-018-025>026-261100-
   North Central Minnesota

CITY           SKY/WX    TMP DP  RH WIND       PRES   REMARKS
BAUDETTE       MOCLDY    54  52  93 S7        29.72R
FLAG ISLAND    CLOUDY    57  55  94 SE16      29.69R
INTL FALLS     MOCLDY    54  52  93 SE6       29.75F
WASKISH        MOCLDY    55  54  94 CALM      29.72S
BIG FORK       LGT RAIN  55  54  94 SE3       29.76F
LONGVILLE      FOG       55  54  94 CALM      29.75F VSB 1
GRAND RAPIDS   LGT RAIN  52  52 100 CALM      29.78F FOG
CRANE LAKE     CLOUDY    50  48  93 SE3       29.80S
ORR            CLOUDY    52  48  87 SE3       29.74F
COOK           CLOUDY    54  52  94 SE6       29.79S
WALKER         CLOUDY    56  56  97 SE6       29.73F
$$
MNZ012-019>021-037-261100-
   Northeast Minnesota

CITY           SKY/WX    TMP DP  RH WIND       PRES   REMARKS
DULUTH         FOG       45  44  97 E7        29.79F VSB 1/4
ELY            CLOUDY    52  48  87 CALM      29.80S
HIBBING        FOG       49  49 100 SE5       29.78F VSB 1/2
EVELETH        CLOUDY    52  52 100 SE3       29.81S FOG
DULUTH HARBOR  FOG       43  41  93 NE12      29.82F VSB 3/4
TWO HARBORS    HAZE      52  46  82 E3        29.80S VSB 1/4
SILVER BAY     CLOUDY    50  48  93 N3        29.81S
GRAND MARAIS     N/A     50  47  89 VRB5      29.82F
G MARAIS ARPRT CLOUDY    52  48  87 NE5       29.86S FOG
$$
MNZ029>031-032-039>041-046>048-054>057-064-261100-
   West Central Minnesota

CITY           SKY/WX    TMP DP  RH WIND       PRES   REMARKS
FERGUS FALLS   PTCLDY    55  55 100 NW9       29.72F
WHEATON        CLOUDY    57  55  94 W5        29.77S
MORRIS         CLOUDY    55  52  88 W3        29.75S
ALEXANDRIA     CLOUDY    55  49  80 S7        29.75F
ELBOW LAKE     MOCLDY    55  55  99 NW7       29.75S FOG
WADENA         PTCLDY    55  55 100 CALM      29.72F FOG
GLENWOOD       CLOUDY    55  52  88 S8        29.78R
APPLETON       CLOUDY    57  54  88 SW5       29.76R
BENSON         CLOUDY    57  50  77 S3        29.77
ORTONVILLE     CLOUDY    57  52  82 W7        29.76S
MADISON        MOCLDY    57  52  82 W6        29.78R
WILLMAR        FAIR      59  54  82 W5        29.79R
$$
MNZ033>034-036-042>043-049>051-058-059-261100-
   Central Minnesota

CITY           SKY/WX    TMP DP  RH WIND       PRES   REMARKS
ST CLOUD       CLOUDY    60  59  96 CALM      29.76R
SAUK CENTRE    FAIR      56  51  83 SW5       29.77R
PAYNESVILLE    PTCLDY    58  56  94 W7        29.78R
AITKIN         FOG       55  52  88 CALM      29.74F VSB 1/2
PINE RIVER     CLOUDY    57  57 100 SE5       29.78F FOG
BRAINERD       FOG       57  57 100 CALM      29.75F VSB 1
STAPLES        CLOUDY    57  57 100 CALM      29.73F FOG
LONG PRAIRIE   FAIR      55  52  88 S6        29.75F
LITTLE FALLS   FOG       59  55  88 E3        29.75R VSB 1/4
LITCHFIELD     CLOUDY    61  57  88 CALM      29.78R
BUFFALO        CLOUDY    62  56  80 S5        29.77S
MAPLE LAKE     CLOUDY    64  59  84 S5        29.76R
HUTCHINSON     PTCLDY    62  58  87 CALM      29.78R
$$
MNZ037-044-045-052-053-261100-
   East Central Minnesota

CITY           SKY/WX    TMP DP  RH WIND       PRES   REMARKS
PRINCETON        N/A     64  63  94 CALM      29.76R FOG
MORA           FOG       54  54 100 CALM      29.77F VSB 1/2
CAMBRIDGE      HAZE      64  55  72 CALM      29.74R VSB 1
RUSH CITY      CLOUDY    59  58  97 NE6       29.74F FOG
MOOSE LAKE     CLOUDY    45  43  93 NE6       29.77F FOG
HINCKLEY       FOG       55  55 100 E6        29.76F VSB 1/2
CLOQUET        FOG       45  43  93 E6        29.78F VSB 1/4
MCGREGOR       CLOUDY    50  48  93 E3        29.76F VSB 1/2
$$
MNZ071>073-080-081-089-090-097-098-261100-
   Southwest Minnesota

CITY           SKY/WX    TMP DP  RH WIND       PRES   REMARKS
MONTEVIDEO     CLOUDY    61  52  72 W3        29.80R
GRANITE FALLS  CLOUDY    59  53  80 SW3       29.81R
CANBY          CLOUDY    61  55  82 NW5       29.80R
MARSHALL       CLOUDY    62  53  72 CALM      29.81R
REDWOOD FALLS  MOCLDY    61  54  77 SW8       29.78R
OLIVIA         CLOUDY    59  55  88 W5        29.78R
PIPESTONE      PTCLDY    59  54  82 NW7       29.83R
WINDOM         CLOUDY    57  55  94 CALM      29.83R
WORTHINGTON    CLOUDY    61  55  81 SW14      29.85R
JACKSON        CLOUDY    63  52  67 SW12      29.84R
TRACY          CLOUDY    61  54  78 SW3       29.82R
SLAYTON        MOCLDY    59  54  83 SW9       29.84R
$$
MNZ065>067-074>077-082>085-091>093-261100-
   South Central Minnesota

CITY           SKY/WX    TMP DP  RH WIND       PRES   REMARKS
MANKATO        CLOUDY    61  55  82 SE12      29.78R
NEW ULM        CLOUDY    59  57  94 SW14G28   29.79R
ST JAMES       CLOUDY    57  52  82 SE10      29.81R
FAIRMONT       CLOUDY    63  46  55 S21       29.82R
GLENCOE        MOCLDY    63  61  94 SE5       29.75R
FARIBAULT      CLOUDY    59  57  94 SE3       29.80R
OWATONNA       CLOUDY    57  55  94 E3        29.80S
WASECA         CLOUDY    59  55  88 SE7       29.82R
ALBERT LEA     LGT RAIN  57  57 100 CALM      29.85R
$$
MNZ078>079-086>088-094>096-261100-
   Southeast Minnesota

CITY           SKY/WX    TMP DP  RH WIND       PRES   REMARKS
ROCHESTER      RAIN      58  57  97 NW10      29.86R FOG
RED WING       RAIN      61  57  88 CALM      29.81S
STANTON        CLOUDY    60  56  87 SE6       29.76F
DODGE CENTER   LGT RAIN  57  57 100 SE3       29.83S
WINONA         CLOUDY    63  61  94 NW15G24   29.84R
AUSTIN         RAIN      57  55  94 N3        29.86R
PRESTON        TSTM      57  55  92 N13G20      N/A
$$
ABBREVIATIONS USED IN REMARKS
   TC - TEMPERATURES IN CELSIUS
  WCI - WIND CHILL INDEX
   HX - HEAT INDEX
  VSB - VISIBILITY
$$




USA.gov is the U.S. government's official web portal to all federal, state and local government web resources and services.